Montevideo, MN

7:42 PM CST on December 05, 2016 (GMT -0600)
Montevideo-Chippewa County

Weather History for KMVE - November, 2012

Change the Weather History Date:

Wednesday, November 7, 2012

  Actual Average Record
Temperature  
Mean Temperature 39 °F -  
Max Temperature 48 °F 45 °F 71 °F (1999)
Min Temperature 30 °F 26 °F -9 °F (1991)
Degree Days  
Heating Degree Days 26    
Moisture  
Dew Point 34 °F    
Average Humidity 81    
Maximum Humidity 100    
Minimum Humidity 58    
Precipitation  
Precipitation 0.00 in - - ()
Sea Level Pressure  
Sea Level Pressure 30.05 in    
Wind  
Wind Speed 7 mph (WSW)    
Max Wind Speed 14 mph    
Max Gust Speed 23 mph    
Visibility 10 miles    
Events      
Averages and records for this station are not official NWS values.
T = Trace of Precipitation, MM = Missing Value Source: NWS Daily Summary

Daily Weather History Graph

Daily Weather History Graph

Search for Another Location

Airport or City:

Trip Planner

Search our weather history database for the weather conditions in past years. The results will help you decide how hot, cold, wet, or windy it might be!

Date:

Astronomy

Nov. 07, 2012 Rise Set
Actual Time 7:10 AM CST 5:02 PM CST
Civil Twilight 6:39 AM CST 5:33 PM CST
Nautical Twilight 6:03 AM CST 6:08 PM CST
Astronomical Twilight 5:29 AM CST 6:42 PM CST
Moon No Moon Rise 1:28 PM CST (11/7)
Length of Visible Light 10h 54m
Length of Day
9h 52m
Last Quarter, 43% of the Moon is Illuminated
Nov 7
Last Quarter
Nov 13
New
Nov 20
First Quarter
Nov 28
Full
Dec 6
Last Quarter

Hourly Weather History & Observations

Time (CST) Temp. Windchill Dew Point Humidity Pressure Visibility Wind Dir Wind Speed Gust Speed Precip Events Conditions
12:14 AM 39.2 °F 33.0 °F 35.6 °F 87% 30.04 in 10.0 mi North 9.2 mph - N/A   Overcast
12:34 AM 39.2 °F 33.0 °F 35.6 °F 87% 30.05 in 10.0 mi North 9.2 mph - N/A   Overcast
12:54 AM 39.2 °F 33.6 °F 35.6 °F 87% 30.05 in 10.0 mi North 8.1 mph - N/A   Overcast
1:14 AM 37.4 °F 32.8 °F 35.6 °F 93% 30.06 in 10.0 mi North 5.8 mph - N/A   Overcast
1:34 AM 37.4 °F 32.8 °F 35.6 °F 93% 30.06 in 10.0 mi North 5.8 mph - N/A   Overcast
1:54 AM 37.4 °F 32.8 °F 35.6 °F 93% 30.06 in 10.0 mi North 5.8 mph - N/A   Overcast
2:14 AM 37.4 °F 32.8 °F 35.6 °F 93% 30.07 in 10.0 mi North 5.8 mph - N/A   Overcast
2:54 AM 37.4 °F 32.8 °F 35.6 °F 93% 30.08 in 10.0 mi NW 5.8 mph - N/A   Overcast
3:14 AM 39.2 °F 35.0 °F 35.6 °F 87% 30.08 in 10.0 mi NW 5.8 mph - N/A   Overcast
3:34 AM 37.4 °F 33.8 °F 35.6 °F 93% 30.08 in 10.0 mi NNW 4.6 mph - N/A   Overcast
3:54 AM 37.4 °F 32.8 °F 35.6 °F 93% 30.08 in 10.0 mi NW 5.8 mph - N/A   Overcast
4:34 AM 35.6 °F 29.9 °F 33.8 °F 93% 30.09 in 10.0 mi NW 6.9 mph - N/A   Mostly Cloudy
4:54 AM 33.8 °F 27.7 °F 32.0 °F 93% 30.09 in 10.0 mi NW 6.9 mph - N/A   Scattered Clouds
5:14 AM 33.8 °F 27.0 °F 30.2 °F 87% 30.10 in 10.0 mi NW 8.1 mph - N/A   Clear
5:34 AM 32.0 °F 24.8 °F 30.2 °F 93% 30.11 in 10.0 mi NW 8.1 mph - N/A   Clear
5:54 AM 32.0 °F 25.6 °F 30.2 °F 93% 30.11 in 10.0 mi NW 6.9 mph - N/A   Clear
6:14 AM 30.2 °F 24.3 °F 30.2 °F 100% 30.10 in 10.0 mi NW 5.8 mph - N/A   Clear
6:34 AM 30.2 °F 24.3 °F 30.2 °F 100% 30.10 in 10.0 mi NW 5.8 mph - N/A   Clear
6:54 AM 30.2 °F 24.3 °F 30.2 °F 100% 30.11 in 10.0 mi NW 5.8 mph - N/A   Clear
7:14 AM 30.2 °F 26.7 °F 28.4 °F 93% 30.11 in 10.0 mi WNW 3.5 mph - N/A   Clear
7:34 AM 30.2 °F 25.4 °F 28.4 °F 93% 30.11 in 10.0 mi WNW 4.6 mph - N/A   Clear
7:54 AM 30.2 °F - 30.2 °F 100% 30.11 in 10.0 mi Calm Calm - N/A   Clear
8:14 AM 32.0 °F 28.7 °F 30.2 °F 93% 30.11 in 10.0 mi WNW 3.5 mph - N/A   Clear
8:34 AM 32.0 °F 28.7 °F 30.2 °F 93% 30.12 in 10.0 mi WNW 3.5 mph - N/A   Clear
8:54 AM 33.8 °F 30.8 °F 30.2 °F 87% 30.12 in 10.0 mi WNW 3.5 mph - N/A   Clear
9:14 AM 35.6 °F - 30.2 °F 81% 30.12 in 10.0 mi Calm Calm - N/A   Clear
9:34 AM 35.6 °F - 32.0 °F 87% 30.12 in 10.0 mi Calm Calm - N/A   Clear
9:54 AM 39.2 °F - 33.8 °F 81% 30.12 in 10.0 mi Calm Calm - N/A   Clear
10:14 AM 39.2 °F - 33.8 °F 81% 30.12 in 10.0 mi Calm Calm - N/A   Clear
10:34 AM 41.0 °F 39.0 °F 35.6 °F 81% 30.11 in 10.0 mi SW 3.5 mph - N/A   Clear
10:54 AM 42.8 °F 41.1 °F 35.6 °F 76% 30.12 in 10.0 mi SW 3.5 mph - N/A   Clear
11:14 AM 44.6 °F 43.1 °F 35.6 °F 71% 30.12 in 10.0 mi WSW 3.5 mph - N/A   Clear
11:34 AM 44.6 °F 41.4 °F 37.4 °F 76% 30.11 in 10.0 mi West 5.8 mph - N/A   Clear
11:54 AM 44.6 °F 40.2 °F 35.6 °F 71% 30.09 in 10.0 mi SW 8.1 mph - N/A   Clear
12:14 PM 46.4 °F 42.9 °F 35.6 °F 66% 30.08 in 10.0 mi SW 6.9 mph - N/A   Clear
12:34 PM 46.4 °F 41.5 °F 35.6 °F 66% 30.08 in 10.0 mi WSW 10.4 mph - N/A   Clear
12:54 PM 46.4 °F 42.9 °F 35.6 °F 66% - 10.0 mi WSW 6.9 mph - N/A   Scattered Clouds
1:14 PM 48.2 °F - 35.6 °F 62% 30.05 in 10.0 mi SSW 6.9 mph - N/A   Scattered Clouds
1:34 PM 48.2 °F - 35.6 °F 62% 30.05 in 10.0 mi SW 11.5 mph - N/A   Clear
1:54 PM 48.2 °F - 35.6 °F 62% 30.04 in 10.0 mi SW 10.4 mph - N/A   Clear
2:14 PM 48.2 °F - 35.6 °F 62% 30.03 in 10.0 mi SW 10.4 mph 16.1 mph N/A   Clear
2:34 PM 48.2 °F - 35.6 °F 62% 30.03 in 10.0 mi SSW 10.4 mph 16.1 mph N/A   Clear
2:54 PM 48.2 °F - 35.6 °F 62% 30.02 in 10.0 mi SSW 9.2 mph 16.1 mph N/A   Clear
3:14 PM 48.2 °F - 35.6 °F 62% 30.02 in 10.0 mi SW 10.4 mph - N/A   Clear
3:39 PM 48.2 °F - 35.6 °F 62% 30.01 in 10.0 mi SW 10.4 mph - N/A   Clear
3:54 PM 48.2 °F - 35.6 °F 62% 30.01 in 10.0 mi SSW 9.2 mph - N/A   Clear
4:14 PM 48.2 °F - 33.8 °F 58% 30.01 in 10.0 mi SSW 10.4 mph - N/A   Clear
4:34 PM 46.4 °F 42.4 °F 35.6 °F 66% 30.00 in 10.0 mi SSW 8.1 mph - N/A   Clear
4:54 PM 46.4 °F 42.9 °F 35.6 °F 66% 30.00 in 10.0 mi SSW 6.9 mph - N/A   Clear
5:14 PM 46.4 °F 42.9 °F 35.6 °F 66% 30.00 in 10.0 mi SSW 6.9 mph - N/A   Clear
5:34 PM 44.6 °F 40.2 °F 35.6 °F 71% 29.99 in 10.0 mi SSW 8.1 mph - N/A   Clear
5:54 PM 44.6 °F 40.2 °F 35.6 °F 71% 29.99 in 10.0 mi South 8.1 mph - N/A   Clear
6:14 PM 44.6 °F 40.2 °F 33.8 °F 66% 29.99 in 10.0 mi South 8.1 mph - N/A   Clear
6:34 PM 44.6 °F 40.2 °F 35.6 °F 71% 29.99 in 10.0 mi South 8.1 mph - N/A   Clear
6:53 PM 42.8 °F 37.5 °F 35.6 °F 76% 29.99 in 10.0 mi South 9.2 mph - N/A   Clear
7:14 PM 41.0 °F 35.2 °F 35.6 °F 81% 29.99 in 10.0 mi South 9.2 mph - N/A   Clear
7:34 PM 39.2 °F 33.0 °F 35.6 °F 87% 29.98 in 10.0 mi South 9.2 mph - N/A   Clear
7:53 PM 39.2 °F 32.5 °F 35.6 °F 87% 29.98 in 10.0 mi South 10.4 mph - N/A   Clear
8:14 PM 39.2 °F 32.0 °F 35.6 °F 87% 29.98 in 10.0 mi South 11.5 mph - N/A   Clear
8:34 PM 39.2 °F 32.5 °F 35.6 °F 87% 29.97 in 10.0 mi South 10.4 mph - N/A   Clear
8:53 PM 41.0 °F 33.9 °F 35.6 °F 81% 29.98 in 10.0 mi South 12.7 mph 16.1 mph N/A   Clear
9:14 PM 41.0 °F 34.7 °F 35.6 °F 81% 29.98 in 10.0 mi SSW 10.4 mph - N/A   Clear
9:34 PM 39.2 °F 31.6 °F 35.6 °F 87% 29.98 in 10.0 mi SSW 12.7 mph 16.1 mph N/A   Clear
9:53 PM 39.2 °F 31.2 °F 35.6 °F 87% 29.98 in 10.0 mi South 13.8 mph - N/A   Clear
10:14 PM 39.2 °F 32.0 °F 35.6 °F 87% 29.97 in 10.0 mi South 11.5 mph 17.3 mph N/A   Clear
10:34 PM 39.2 °F 31.6 °F 35.6 °F 87% 29.96 in 10.0 mi South 12.7 mph - N/A   Clear
10:54 PM 39.2 °F 31.2 °F 35.6 °F 87% 29.95 in 10.0 mi South 13.8 mph 20.7 mph N/A   Clear
11:14 PM 39.2 °F 31.6 °F 33.8 °F 81% 29.94 in 10.0 mi South 12.7 mph 20.7 mph N/A   Clear
11:34 PM 37.4 °F 28.9 °F 33.8 °F 87% 29.94 in 10.0 mi South 13.8 mph 23.0 mph N/A   Clear
11:54 PM 37.4 °F 29.3 °F 33.8 °F 87% 29.94 in 10.0 mi South 12.7 mph 20.7 mph N/A   Clear